Temp
22 23 24 25 26 25 24 25 26 26 25 22 21 21 21 21 22 22 23 22 23 23 24 24 24 24 23 22 22 22 21 22 21 23 25 25 24 22 21 21 20 20 20 21 21 21 21 21 22 24 26 27 26 25 24 25 23 22 22 22 23 22 21 21 21 21 21 21 22
21 22 24 28 29 27 25 25 26 26 25 23 22 22 21 22 22 22 22 21 23 24 24 25 24 23 22 22 22 22 22 22 21 22 23 23 22 21 20 21 20 20 21 21 20 22 23 22 23 25 26 26 26 25 25 25 23 22 22 21 22 22 22 22 22 22 22 22 22
21 22 22 24 24 24 24 24 23 22 21 21 21 21 22 22 22 23 23 23 22 22 22 24 23 23 22 21 21 21 22 22 21 21 22 22 21 20 20 21 20 20 21 22 21 22 23 22 24 26 27 27 25 25 25 24 23 22 22 21 22 23 24 24 23 23 23 24 22
21 21 21 21 21 21 22 24 22 20 20 21 20 20 21 22 22 23 23 21 20 21 22 22 23 23 23 22 22 22 22 24 23 22 21 21 21 20 20 20 20 20 21 21 20 21 21 22 25 26 26 24 23 23 24 25 23 23 23 23 24 24 24 25 25 25 25 25 23
20 21 22 22 22 22 22 21 21 20 20 20 21 21 21 21 21 21 21 21 22 23 23 21 22 23 23 23 22 21 21 21 25 25 23 21 21 20 20 20 20 21 21 21 21 21 22 22 25 26 26 25 25 24 24 23 22 22 23 24 25 25 26 26 26 26 25 25 24
21 21 21 21 21 21 21 21 20 20 20 20 20 20 20 22 22 22 22 22 22 22 21 22 24 26 26 23 21 21 20 20 21 21 21 20 21 21 20 20 20 20 21 21 21 22 22 23 25 26 25 25 24 24 23 21 22 22 23 24 25 25 26 26 26 26 25 25 23
22 21 21 20 20 20 20 19 19 19 19 19 19 19 19 20 20 20 20 22 22 22 23 25 26 26 24 22 21 21 21 21 21 20 20 21 21 21 21 21 20 20 20 21 21 22 23 23 24 25 26 28 27 25 23 23 23 23 23 23 25 26 26 25 25 25 25 23 22
21 21 21 20 20 20 19 19 19 19 19 20 20 19 19 19 19 19 19 20 20 21 23 25 23 21 21 20 21 21 21 20 20 20 20 21 20 20 20 20 20 20 21 21 22 22 22 23 25 25 26 26 26 26 24 23 22 22 22 22 24 25 25 24 24 23 23 23 22
20 20 20 20 19 19 19 19 19 19 19 20 20 19 19 19 19 19 19 20 22 22 22 22 21 20 20 19 19 20 20 20 20 20 20 20 20 20 20 20 20 21 22 22 22 22 22 23 25 25 25 25 25 25 24 23 22 21 22 23 24 24 24 24 22 22 22 23 23
21 20 19 19 19 19 19 18 18 19 19 20 19 19 20 23 22 21 20 22 23 23 22 21 21 20 19 19 19 19 20 20 20 20 20 21 21 21 20 21 21 21 22 23 23 22 22 24 24 24 24 24 23 23 23 22 22 21 22 23 24 24 23 23 22 22 22 23 23
22 21 20 20 19 19 19 18 19 19 19 20 19 19 20 23 23 22 22 22 22 21 20 20 20 20 19 19 20 20 20 21 21 21 20 20 21 21 20 20 20 21 21 22 22 23 23 24 23 23 22 23 23 22 22 22 22 21 21 23 23 23 22 22 22 22 23 23 23
22 21 20 20 19 19 20 19 19 20 20 19 20 19 19 20 20 21 22 21 20 20 20 20 20 19 19 21 20 21 22 21 20 20 20 20 20 20 20 20 20 20 21 22 22 23 23 23 22 22 22 22 23 23 23 22 22 22 21 22 22 22 22 22 22 22 23 24 23
22 21 21 20 19 19 19 20 20 20 20 20 20 20 20 20 20 21 21 20 20 20 20 20 20 20 19 20 20 21 21 21 20 20 21 21 20 20 20 20 20 20 21 21 22 22 22 22 21 21 21 21 22 23 23 22 22 22 21 22 22 22 22 22 22 23 24 24 24
22 21 21 20 19 19 20 20 21 21 20 20 20 21 21 20 21 21 21 19 20 20 20 19 20 21 21 21 21 21 21 21 20 20 20 21 21 20 20 20 20 20 21 21 21 21 21 21 21 21 21 21 22 22 22 22 22 22 22 22 22 22 22 22 22 23 23 24 23
21 21 21 20 20 20 21 21 22 22 21 20 21 21 20 20 21 22 21 19 19 19 19 19 20 22 23 22 21 21 20 20 20 19 20 20 20 20 20 20 19 19 20 21 21 21 21 21 21 21 21 21 21 22 22 22 22 22 22 22 22 22 22 22 23 23 23 24 23
22 21 21 21 20 21 21 22 22 22 21 21 21 20 20 20 21 21 21 20 20 19 19 19 20 21 21 22 22 21 20 20 19 19 19 20 20 20 20 20 19 19 20 20 21 21 21 21 21 21 21 21 21 21 22 22 22 22 22 22 22 23 23 23 23 23 24 24 23
22 22 21 21 21 21 22 22 22 22 22 21 20 20 20 20 20 21 22 22 21 20 20 20 21 21 21 22 22 22 21 20 20 20 20 20 20 20 20 20 20 20 20 20 20 20 21 21 21 21 21 21 21 21 22 22 22 22 22 23 23 23 23 24 24 24 24 24 24
22 22 21 21 21 22 22 22 22 22 22 21 20 20 20 20 20 21 22 23 22 21 20 20 20 20 20 20 21 21 21 21 20 20 20 20 20 20 20 20 21 20 20 20 20 20 20 21 21 21 21 21 22 22 22 22 22 22 23 23 23 24 24 25 25 25 25 25 25
23 22 22 22 22 22 23 23 23 22 22 21 20 20 20 20 20 20 20 21 21 21 21 21 20 20 20 20 20 21 22 22 21 20 20 20 20 20 20 20 21 20 20 20 20 20 20 21 21 21 21 22 22 22 22 22 23 23 23 23 24 25 25 25 25 25 25 25 25
23 23 23 23 23 23 23 23 23 23 22 21 20 20 20 20 20 20 20 20 21 21 20 20 20 20 20 20 20 20 21 22 21 20 20 20 20 20 20 21 20 20 20 20 20 20 20 20 21 21 21 22 22 22 22 22 23 23 23 24 25 25 26 26 26 26 26 26 25
24 24 24 24 23 23 23 23 23 23 22 22 21 21 21 21 20 20 20 21 21 21 20 19 20 20 20 20 20 20 20 22 21 20 20 21 21 21 21 21 21 21 20 20 20 20 19 20 20 21 21 22 22 22 22 23 23 23 24 25 26 26 27 27 27 27 27 26 26
24 24 24 24 23 23 23 22 22 22 22 22 22 21 21 21 21 21 21 21 21 20 20 20 20 20 20 20 20 20 21 22 21 21 21 21 21 22 22 22 20 20 19 19 19 19 19 19 20 21 21 22 22 22 23 23 24 24 25 26 27 27 28 28 28 28 27 27 26
24 24 23 23 23 24 24 23 22 22 23 22 22 21 21 21 21 21 21 20 21 21 21 20 20 20 20 20 20 20 20 20 20 21 21 21 21 21 21 21 19 19 19 19 20 19 19 20 21 22 22 23 23 24 25 26 27 28 28 29 29 29 29 28 28 27 26 26 26
24 24 23 23 22 23 23 23 22 22 23 23 22 22 21 21 21 21 21 20 20 20 20 21 21 21 20 20 19 19 19 19 20 20 21 21 21 20 20 20 19 19 20 21 22 24 25 26 26 27 28 29 29 30 31 31 31 31 31 30 29 28 27 26 25 25 25 25 26
24 23 23 23 22 22 23 23 23 23 23 23 23 22 22 21 21 21 21 21 20 20 20 20 20 20 20 19 19 19 19 19 19 20 20 21 21 20 20 21 21 21 21 23 28 32 34 35 34 33 33 33 33 33 33 33 32 31 30 28 27 26 25 23 22 22 22 24 25
23 23 23 23 23 22 23 23 23 23 23 23 23 22 22 21 21 21 21 21 21 21 20 20 20 21 22 21 20 19 19 20 20 20 20 20 20 20 20 21 22 21 22 26 31 35 37 38 38 37 35 33 33 33 33 33 32 30 27 25 24 23 23 22 21 21 22 23 24
23 23 23 23 23 23 23 23 23 23 23 23 23 23 22 22 22 21 21 21 21 20 20 20 19 22 24 22 20 19 19 20 20 19 19 19 19 20 20 22 22 22 24 29 34 36 38 39 39 39 38 35 34 33 33 32 29 27 25 23 22 22 22 22 23 24 25 26 26
23 23 23 23 23 23 24 24 24 23 23 23 23 23 23 22 21 21 21 21 20 20 20 20 21 21 22 20 20 19 19 19 20 20 19 19 19 19 20 22 22 24 27 33 35 37 38 39 39 40 40 38 35 34 32 30 28 26 24 23 22 22 22 23 24 26 27 27 27
24 23 23 23 23 23 24 24 24 24 24 24 23 23 22 22 21 21 20 20 20 20 21 22 22 21 20 20 20 19 19 19 19 19 19 19 19 20 21 22 23 26 30 35 36 37 38 39 40 40 41 40 37 34 31 28 26 25 24 23 22 22 22 23 23 25 26 26 25
24 23 23 23 23 24 24 24 24 25 24 24 23 22 22 21 21 21 20 20 20 21 22 23 22 21 21 20 20 20 19 19 20 19 19 18 19 20 22 24 24 26 30 34 36 37 38 39 40 41 41 41 38 34 30 26 25 24 23 23 22 21 21 22 23 25 27 27 26
24 24 23 23 23 24 24 25 25 25 24 24 23 22 22 22 21 21 21 21 22 23 24 23 22 21 20 20 20 19 19 19 19 19 18 18 21 22 23 23 23 25 29 34 36 37 38 39 40 41 41 41 38 33 28 25 23 23 22 21 21 20 21 21 22 25 26 26 25
23 24 24 23 24 24 25 25 25 25 24 23 23 22 22 22 22 21 21 22 22 23 22 22 21 21 20 20 19 19 19 19 19 19 20 21 21 21 22 23 22 25 29 34 36 37 39 39 40 41 41 41 37 32 27 24 22 21 21 20 19 20 20 21 22 24 25 25 25
23 23 24 24 24 25 25 25 25 24 24 23 23 23 22 22 22 21 21 22 22 22 22 21 21 21 20 20 20 20 20 20 20 22 23 23 22 21 22 23 23 27 31 35 36 38 38 39 40 41 41 41 37 31 26 23 22 21 20 19 19 19 20 20 21 22 24 25 25
23 23 24 24 24 25 25 25 25 24 24 23 23 23 23 22 22 22 22 22 23 22 21 21 21 21 21 21 21 21 21 23 22 21 20 20 20 20 21 22 24 28 32 35 37 37 38 39 40 40 41 40 35 30 25 23 21 20 19 18 19 19 20 19 19 20 22 24 24
23 23 24 24 25 25 25 25 24 24 24 23 23 23 23 23 22 22 22 24 24 23 21 21 21 20 20 20 20 20 21 22 21 20 20 19 19 20 21 22 23 28 33 35 36 37 38 39 39 40 40 39 33 28 24 23 20 19 18 18 19 19 19 18 19 19 21 22 23
24 24 24 24 25 25 25 25 24 24 23 23 23 23 23 23 23 22 23 25 24 23 21 21 20 20 20 20 20 21 22 21 20 20 20 20 20 20 20 21 22 26 31 35 36 37 38 38 39 40 40 37 31 27 24 22 20 19 18 19 19 20 19 18 18 19 20 20 21
24 24 24 25 25 25 25 25 24 24 23 23 24 24 23 23 23 23 23 24 23 22 21 21 20 20 20 20 20 21 21 21 20 20 21 22 21 20 20 20 21 24 29 34 35 36 37 38 39 40 39 35 29 25 23 22 20 19 19 19 19 19 19 18 19 19 19 19 22
25 25 25 25 25 25 25 25 24 24 24 24 24 24 24 23 23 23 23 25 23 22 21 21 20 20 20 20 21 21 20 20 20 21 21 21 21 20 20 20 20 23 28 33 35 36 37 38 39 39 39 35 29 25 23 22 21 20 20 20 20 19 18 19 19 19 19 20 27
25 25 25 25 25 25 25 25 24 24 24 24 24 24 24 23 23 24 24 26 23 22 21 21 21 20 21 22 22 21 20 20 20 21 21 20 20 22 23 22 21 23 27 32 34 35 36 37 38 39 39 37 30 25 23 22 22 21 20 20 20 19 18 18 19 19 19 21 29
25 25 25 25 25 25 25 25 25 25 25 25 25 24 24 24 24 25 25 25 23 22 22 21 21 21 22 24 23 22 20 20 19 20 20 21 22 25 27 25 21 22 25 30 33 35 36 37 38 39 39 37 31 27 24 22 23 22 21 20 20 19 19 18 18 18 19 20 25
25 25 25 26 26 26 25 25 25 25 25 25 25 25 25 26 25 25 25 24 22 22 22 22 21 21 22 24 23 21 20 20 20 19 20 21 22 25 26 23 20 20 22 26 31 34 36 37 38 39 39 37 32 29 26 22 24 24 22 22 21 20 19 18 18 18 19 19 20
MSLP
1027.87 1027.95 1028.03 1028.15 1028.23 1028.31 1028.43 1028.43 1028.47 1028.55 1028.63 1028.71 1028.83 1028.87 1028.91 1028.99 1029.03 1028.99 1028.99 1029.07 1029.07 1029.07 1029.03 1028.99 1028.95 1028.91 1028.83 1028.79 1028.75 1028.71 1028.67 1028.59 1028.55 1028.43 1028.35 1028.27 1028.15 1028.11 1028.03 1027.95 1027.91 1027.87 1027.83 1027.71 1027.63 1027.55 1027.47 1027.39 1027.35 1027.23 1027.07 1026.95 1026.79 1026.67 1026.55 1026.43 1026.31 1026.23 1026.15 1025.99 1025.87 1025.75 1025.67 1025.55 1025.35 1025.19 1025.07 1024.99 1024.87
1027.63 1027.71 1027.79 1027.87 1027.91 1028.03 1028.15 1028.19 1028.27 1028.27 1028.31 1028.43 1028.51 1028.59 1028.71 1028.75 1028.79 1028.79 1028.83 1028.87 1028.83 1028.79 1028.75 1028.71 1028.71 1028.71 1028.71 1028.59 1028.55 1028.55 1028.51 1028.43 1028.39 1028.27 1028.15 1028.11 1027.99 1027.95 1027.87 1027.83 1027.71 1027.67 1027.63 1027.55 1027.47 1027.39 1027.27 1027.19 1027.15 1027.03 1026.87 1026.71 1026.55 1026.43 1026.31 1026.15 1026.11 1026.03 1025.91 1025.79 1025.67 1025.55 1025.43 1025.27 1025.07 1024.91 1024.79 1024.71 1024.59
1027.43 1027.55 1027.63 1027.71 1027.75 1027.87 1027.95 1027.99 1028.07 1028.15 1028.19 1028.27 1028.27 1028.35 1028.43 1028.47 1028.51 1028.55 1028.55 1028.55 1028.55 1028.59 1028.63 1028.59 1028.55 1028.55 1028.51 1028.43 1028.39 1028.39 1028.31 1028.27 1028.19 1028.15 1028.03 1027.95 1027.87 1027.79 1027.71 1027.63 1027.55 1027.51 1027.43 1027.35 1027.31 1027.23 1027.11 1027.03 1026.95 1026.79 1026.59 1026.43 1026.35 1026.23 1026.11 1025.95 1025.87 1025.79 1025.71 1025.55 1025.39 1025.27 1025.15 1024.95 1024.75 1024.67 1024.55 1024.43 1024.35
1027.15 1027.31 1027.43 1027.51 1027.55 1027.63 1027.71 1027.71 1027.87 1027.95 1028.03 1028.07 1028.11 1028.15 1028.23 1028.27 1028.27 1028.31 1028.35 1028.39 1028.43 1028.43 1028.43 1028.43 1028.35 1028.27 1028.27 1028.27 1028.23 1028.19 1028.11 1028.03 1027.99 1027.95 1027.87 1027.79 1027.71 1027.59 1027.55 1027.47 1027.43 1027.31 1027.27 1027.15 1027.11 1027.03 1026.99 1026.91 1026.79 1026.59 1026.43 1026.27 1026.19 1026.11 1025.95 1025.75 1025.67 1025.55 1025.43 1025.27 1025.11 1024.99 1024.83 1024.67 1024.51 1024.39 1024.27 1024.15 1024.03
1026.99 1027.03 1027.15 1027.19 1027.27 1027.31 1027.35 1027.43 1027.55 1027.71 1027.79 1027.87 1027.99 1028.03 1028.07 1028.11 1028.11 1028.15 1028.19 1028.27 1028.23 1028.19 1028.15 1028.15 1028.15 1028.11 1028.07 1028.07 1028.03 1027.99 1027.91 1027.87 1027.79 1027.71 1027.67 1027.59 1027.51 1027.43 1027.35 1027.31 1027.23 1027.15 1027.07 1026.99 1026.91 1026.83 1026.79 1026.71 1026.55 1026.43 1026.23 1026.11 1025.99 1025.83 1025.67 1025.55 1025.47 1025.35 1025.15 1024.99 1024.87 1024.71 1024.55 1024.43 1024.23 1024.15 1023.99 1023.87 1023.75
1026.67 1026.75 1026.83 1026.91 1026.99 1027.07 1027.15 1027.23 1027.35 1027.43 1027.55 1027.67 1027.79 1027.87 1027.87 1027.87 1027.91 1027.95 1027.99 1027.99 1027.99 1027.95 1027.95 1027.95 1027.95 1027.87 1027.83 1027.83 1027.83 1027.83 1027.79 1027.71 1027.67 1027.59 1027.55 1027.43 1027.35 1027.27 1027.19 1027.11 1027.03 1026.95 1026.87 1026.83 1026.71 1026.67 1026.59 1026.51 1026.35 1026.19 1026.07 1025.91 1025.71 1025.55 1025.47 1025.39 1025.27 1025.15 1024.95 1024.71 1024.55 1024.43 1024.31 1024.15 1023.99 1023.87 1023.79 1023.63 1023.47
1026.31 1026.51 1026.63 1026.71 1026.79 1026.87 1026.99 1027.03 1027.15 1027.27 1027.39 1027.51 1027.59 1027.67 1027.71 1027.71 1027.71 1027.75 1027.79 1027.75 1027.75 1027.79 1027.79 1027.71 1027.71 1027.71 1027.67 1027.71 1027.71 1027.67 1027.59 1027.55 1027.51 1027.43 1027.39 1027.27 1027.15 1027.11 1026.99 1026.91 1026.83 1026.79 1026.71 1026.63 1026.55 1026.47 1026.39 1026.31 1026.19 1025.99 1025.83 1025.63 1025.51 1025.31 1025.19 1025.15 1025.03 1024.91 1024.71 1024.51 1024.27 1024.11 1023.99 1023.87 1023.75 1023.67 1023.55 1023.43 1023.27
1026.07 1026.23 1026.35 1026.43 1026.55 1026.67 1026.75 1026.83 1026.99 1027.11 1027.23 1027.35 1027.39 1027.43 1027.43 1027.47 1027.51 1027.55 1027.55 1027.55 1027.59 1027.59 1027.59 1027.55 1027.59 1027.59 1027.55 1027.55 1027.55 1027.51 1027.47 1027.43 1027.35 1027.27 1027.19 1027.11 1026.99 1026.91 1026.83 1026.75 1026.67 1026.59 1026.55 1026.43 1026.39 1026.27 1026.19 1026.11 1025.99 1025.79 1025.59 1025.47 1025.31 1025.15 1024.99 1024.91 1024.83 1024.71 1024.51 1024.27 1023.99 1023.83 1023.71 1023.59 1023.55 1023.43 1023.27 1023.15 1022.99
1025.91 1025.99 1026.11 1026.23 1026.31 1026.43 1026.51 1026.63 1026.75 1026.91 1026.99 1027.07 1027.11 1027.15 1027.19 1027.23 1027.27 1027.31 1027.39 1027.39 1027.39 1027.35 1027.39 1027.43 1027.43 1027.43 1027.43 1027.43 1027.39 1027.35 1027.31 1027.27 1027.15 1027.11 1026.99 1026.91 1026.83 1026.71 1026.63 1026.55 1026.47 1026.39 1026.27 1026.19 1026.15 1026.11 1025.99 1025.91 1025.75 1025.55 1025.43 1025.27 1025.15 1024.95 1024.75 1024.67 1024.59 1024.47 1024.27 1024.03 1023.75 1023.51 1023.35 1023.27 1023.15 1023.11 1022.99 1022.83 1022.71
1025.71 1025.79 1025.95 1026.03 1026.15 1026.23 1026.31 1026.43 1026.55 1026.67 1026.75 1026.83 1026.83 1026.87 1026.91 1026.95 1026.99 1027.03 1027.11 1027.11 1027.11 1027.15 1027.19 1027.19 1027.19 1027.23 1027.23 1027.23 1027.23 1027.19 1027.15 1027.03 1026.99 1026.91 1026.83 1026.71 1026.59 1026.51 1026.43 1026.35 1026.27 1026.19 1026.07 1025.99 1025.95 1025.87 1025.83 1025.71 1025.55 1025.35 1025.19 1025.07 1024.95 1024.75 1024.59 1024.43 1024.39 1024.23 1023.99 1023.71 1023.47 1023.23 1022.99 1022.83 1022.79 1022.75 1022.67 1022.55 1022.35
1025.35 1025.55 1025.71 1025.87 1025.95 1026.03 1026.15 1026.31 1026.43 1026.47 1026.55 1026.55 1026.59 1026.67 1026.71 1026.71 1026.71 1026.75 1026.79 1026.83 1026.99 1026.99 1026.99 1026.99 1026.99 1027.03 1027.03 1027.03 1026.99 1026.99 1026.91 1026.83 1026.71 1026.67 1026.55 1026.51 1026.39 1026.31 1026.23 1026.15 1026.11 1025.99 1025.91 1025.83 1025.75 1025.71 1025.59 1025.43 1025.31 1025.15 1024.99 1024.83 1024.75 1024.55 1024.39 1024.23 1024.11 1023.91 1023.67 1023.43 1023.19 1022.99 1022.75 1022.51 1022.39 1022.39 1022.35 1022.19 1021.99
1025.11 1025.27 1025.47 1025.59 1025.71 1025.87 1025.99 1026.15 1026.23 1026.27 1026.35 1026.39 1026.39 1026.43 1026.51 1026.55 1026.55 1026.55 1026.63 1026.71 1026.79 1026.79 1026.71 1026.75 1026.79 1026.83 1026.83 1026.83 1026.75 1026.71 1026.63 1026.59 1026.55 1026.47 1026.43 1026.31 1026.23 1026.15 1026.03 1025.99 1025.87 1025.79 1025.71 1025.63 1025.55 1025.43 1025.35 1025.27 1025.11 1024.99 1024.83 1024.63 1024.55 1024.39 1024.15 1023.95 1023.83 1023.59 1023.35 1023.11 1022.91 1022.71 1022.47 1022.19 1022.03 1021.99 1021.99 1021.87 1021.71
1024.91 1025.11 1025.27 1025.43 1025.55 1025.71 1025.83 1025.91 1025.99 1026.07 1026.15 1026.15 1026.15 1026.23 1026.27 1026.31 1026.35 1026.43 1026.43 1026.51 1026.55 1026.55 1026.55 1026.55 1026.55 1026.59 1026.63 1026.59 1026.55 1026.47 1026.43 1026.39 1026.31 1026.27 1026.19 1026.11 1025.99 1025.87 1025.83 1025.71 1025.63 1025.55 1025.47 1025.39 1025.27 1025.23 1025.15 1025.03 1024.91 1024.75 1024.59 1024.39 1024.23 1024.03 1023.87 1023.71 1023.55 1023.35 1023.11 1022.83 1022.55 1022.35 1022.15 1021.87 1021.71 1021.67 1021.59 1021.51 1021.35
1024.71 1024.91 1025.07 1025.23 1025.39 1025.51 1025.59 1025.71 1025.75 1025.83 1025.87 1025.91 1025.95 1025.99 1026.07 1026.11 1026.15 1026.19 1026.27 1026.27 1026.31 1026.31 1026.31 1026.35 1026.35 1026.35 1026.35 1026.31 1026.31 1026.27 1026.23 1026.15 1026.15 1026.07 1025.99 1025.87 1025.79 1025.71 1025.59 1025.51 1025.43 1025.35 1025.27 1025.15 1025.07 1024.99 1024.91 1024.83 1024.71 1024.55 1024.43 1024.19 1023.95 1023.71 1023.55 1023.43 1023.27 1023.03 1022.79 1022.55 1022.27 1021.99 1021.71 1021.55 1021.43 1021.35 1021.27 1021.15 1020.95
1024.55 1024.71 1024.83 1024.99 1025.15 1025.27 1025.35 1025.43 1025.47 1025.55 1025.63 1025.71 1025.71 1025.75 1025.87 1025.91 1025.91 1025.95 1025.99 1026.03 1026.07 1026.11 1026.15 1026.19 1026.19 1026.15 1026.07 1026.07 1026.07 1026.07 1026.03 1025.99 1025.95 1025.91 1025.83 1025.71 1025.59 1025.51 1025.43 1025.27 1025.19 1025.11 1024.99 1024.91 1024.83 1024.71 1024.67 1024.55 1024.43 1024.31 1024.19 1023.99 1023.71 1023.47 1023.27 1023.07 1022.87 1022.67 1022.43 1022.19 1021.91 1021.67 1021.43 1021.23 1021.11 1020.99 1020.91 1020.75 1020.55
1024.31 1024.43 1024.59 1024.79 1024.95 1024.99 1025.07 1025.15 1025.19 1025.27 1025.39 1025.43 1025.47 1025.55 1025.63 1025.67 1025.71 1025.71 1025.75 1025.83 1025.87 1025.91 1025.99 1025.99 1025.99 1025.95 1025.87 1025.87 1025.87 1025.87 1025.87 1025.79 1025.75 1025.71 1025.63 1025.55 1025.39 1025.27 1025.15 1025.03 1024.95 1024.83 1024.79 1024.71 1024.59 1024.47 1024.39 1024.27 1024.15 1024.03 1023.91 1023.71 1023.47 1023.19 1022.95 1022.71 1022.47 1022.23 1021.99 1021.71 1021.51 1021.31 1021.15 1020.95 1020.75 1020.59 1020.43 1020.27 1020.15
1024.07 1024.19 1024.39 1024.55 1024.63 1024.71 1024.75 1024.83 1024.91 1024.99 1025.11 1025.19 1025.27 1025.31 1025.43 1025.43 1025.51 1025.51 1025.55 1025.55 1025.63 1025.71 1025.71 1025.75 1025.71 1025.71 1025.71 1025.67 1025.63 1025.63 1025.63 1025.59 1025.55 1025.47 1025.43 1025.27 1025.15 1025.03 1024.95 1024.83 1024.71 1024.63 1024.55 1024.47 1024.35 1024.23 1024.07 1023.99 1023.87 1023.75 1023.63 1023.43 1023.19 1022.91 1022.63 1022.35 1022.11 1021.83 1021.55 1021.31 1021.11 1020.95 1020.79 1020.59 1020.39 1020.19 1019.99 1019.87 1019.71
1023.79 1023.91 1024.07 1024.19 1024.27 1024.39 1024.43 1024.51 1024.63 1024.71 1024.83 1024.91 1025.03 1025.11 1025.15 1025.23 1025.27 1025.27 1025.27 1025.27 1025.39 1025.43 1025.51 1025.51 1025.51 1025.51 1025.51 1025.51 1025.43 1025.43 1025.43 1025.39 1025.27 1025.23 1025.15 1024.99 1024.87 1024.79 1024.71 1024.55 1024.43 1024.35 1024.27 1024.19 1024.15 1023.99 1023.83 1023.71 1023.55 1023.43 1023.31 1023.15 1022.87 1022.59 1022.31 1021.99 1021.71 1021.43 1021.15 1020.95 1020.75 1020.59 1020.43 1020.27 1020.03 1019.83 1019.67 1019.55 1019.43
1023.43 1023.59 1023.75 1023.87 1023.95 1023.99 1024.07 1024.19 1024.27 1024.43 1024.55 1024.71 1024.79 1024.87 1024.95 1024.99 1025.03 1025.07 1025.11 1025.11 1025.15 1025.19 1025.23 1025.27 1025.27 1025.27 1025.31 1025.31 1025.27 1025.23 1025.15 1025.11 1025.03 1024.99 1024.83 1024.75 1024.67 1024.55 1024.43 1024.31 1024.19 1024.07 1023.99 1023.95 1023.87 1023.71 1023.55 1023.43 1023.27 1023.15 1022.99 1022.79 1022.55 1022.23 1021.91 1021.63 1021.35 1021.03 1020.79 1020.59 1020.47 1020.35 1020.15 1019.95 1019.67 1019.47 1019.31 1019.19 1019.11
1023.07 1023.27 1023.39 1023.47 1023.55 1023.67 1023.79 1023.87 1023.99 1024.15 1024.27 1024.43 1024.55 1024.67 1024.71 1024.75 1024.79 1024.83 1024.87 1024.87 1024.87 1024.95 1025.03 1025.11 1025.15 1025.11 1025.11 1025.07 1025.07 1024.99 1024.91 1024.83 1024.83 1024.71 1024.63 1024.47 1024.43 1024.31 1024.19 1024.07 1023.95 1023.87 1023.75 1023.71 1023.59 1023.43 1023.31 1023.19 1023.03 1022.83 1022.67 1022.47 1022.15 1021.83 1021.51 1021.15 1020.91 1020.67 1020.43 1020.31 1020.23 1020.11 1019.87 1019.55 1019.27 1019.11 1018.99 1018.87 1018.83
1022.71 1022.83 1022.91 1023.03 1023.23 1023.39 1023.51 1023.63 1023.75 1023.91 1024.07 1024.23 1024.35 1024.43 1024.51 1024.55 1024.59 1024.59 1024.63 1024.59 1024.63 1024.71 1024.83 1024.83 1024.91 1024.91 1024.87 1024.87 1024.83 1024.75 1024.67 1024.59 1024.55 1024.51 1024.43 1024.27 1024.15 1024.03 1023.91 1023.79 1023.71 1023.59 1023.51 1023.43 1023.35 1023.19 1023.07 1022.91 1022.75 1022.55 1022.31 1022.07 1021.75 1021.43 1021.07 1020.75 1020.47 1020.27 1020.11 1020.03 1019.99 1019.79 1019.51 1019.19 1018.99 1018.83 1018.71 1018.59 1018.55
1022.27 1022.43 1022.59 1022.75 1022.95 1023.11 1023.27 1023.43 1023.55 1023.71 1023.87 1023.99 1024.11 1024.23 1024.27 1024.35 1024.35 1024.35 1024.35 1024.35 1024.43 1024.55 1024.59 1024.63 1024.67 1024.67 1024.71 1024.67 1024.59 1024.55 1024.43 1024.31 1024.27 1024.27 1024.15 1024.07 1023.91 1023.75 1023.63 1023.55 1023.47 1023.43 1023.31 1023.23 1023.07 1022.95 1022.79 1022.63 1022.43 1022.19 1021.95 1021.67 1021.27 1020.95 1020.63 1020.35 1020.11 1019.91 1019.83 1019.75 1019.63 1019.39 1019.15 1018.91 1018.75 1018.59 1018.47 1018.35 1018.27
1021.95 1022.15 1022.39 1022.55 1022.75 1022.91 1023.07 1023.23 1023.43 1023.55 1023.67 1023.75 1023.87 1023.99 1024.11 1024.11 1024.11 1024.11 1024.15 1024.23 1024.27 1024.27 1024.35 1024.39 1024.43 1024.43 1024.43 1024.39 1024.35 1024.31 1024.27 1024.15 1024.11 1023.99 1023.91 1023.83 1023.71 1023.55 1023.43 1023.35 1023.27 1023.23 1023.15 1022.99 1022.83 1022.71 1022.55 1022.31 1022.03 1021.75 1021.47 1021.15 1020.83 1020.43 1020.15 1019.87 1019.71 1019.55 1019.51 1019.43 1019.23 1019.07 1018.87 1018.71 1018.55 1018.43 1018.31 1018.19 1018.15
1021.71 1021.99 1022.19 1022.43 1022.59 1022.75 1022.87 1023.07 1023.23 1023.35 1023.43 1023.51 1023.63 1023.75 1023.83 1023.87 1023.87 1023.91 1023.95 1023.99 1024.03 1024.07 1024.11 1024.15 1024.15 1024.15 1024.15 1024.15 1024.15 1024.15 1024.11 1024.03 1023.95 1023.79 1023.67 1023.55 1023.43 1023.35 1023.27 1023.15 1023.11 1022.99 1022.83 1022.71 1022.55 1022.39 1022.15 1021.83 1021.47 1021.15 1020.83 1020.51 1020.15 1019.83 1019.55 1019.35 1019.23 1019.15 1019.11 1019.07 1018.99 1018.83 1018.75 1018.59 1018.43 1018.31 1018.23 1018.11 1018.03
1021.51 1021.75 1021.99 1022.23 1022.39 1022.55 1022.71 1022.83 1022.99 1023.07 1023.15 1023.23 1023.35 1023.47 1023.59 1023.67 1023.71 1023.71 1023.75 1023.83 1023.83 1023.87 1023.87 1023.91 1023.91 1023.95 1023.99 1023.99 1023.99 1023.95 1023.87 1023.87 1023.75 1023.63 1023.47 1023.31 1023.19 1023.11 1023.03 1022.95 1022.83 1022.71 1022.55 1022.39 1022.11 1021.75 1021.43 1021.15 1020.83 1020.55 1020.27 1019.99 1019.67 1019.39 1019.19 1019.15 1019.11 1019.03 1018.99 1018.99 1018.87 1018.75 1018.63 1018.51 1018.39 1018.27 1018.15 1017.99 1017.91
1021.31 1021.55 1021.75 1021.95 1022.15 1022.27 1022.43 1022.55 1022.67 1022.75 1022.83 1022.99 1023.15 1023.27 1023.35 1023.43 1023.47 1023.51 1023.55 1023.55 1023.59 1023.63 1023.67 1023.71 1023.71 1023.71 1023.75 1023.75 1023.71 1023.71 1023.63 1023.55 1023.47 1023.43 1023.27 1023.15 1022.99 1022.87 1022.83 1022.71 1022.55 1022.43 1022.27 1022.07 1021.71 1021.31 1020.99 1020.67 1020.39 1020.15 1019.87 1019.63 1019.35 1019.15 1018.99 1018.99 1018.95 1018.87 1018.83 1018.83 1018.79 1018.71 1018.55 1018.43 1018.27 1018.11 1017.99 1017.83 1017.71
1021.11 1021.27 1021.47 1021.63 1021.87 1021.99 1022.11 1022.19 1022.35 1022.47 1022.63 1022.75 1022.91 1022.99 1023.07 1023.15 1023.23 1023.27 1023.31 1023.35 1023.39 1023.43 1023.43 1023.47 1023.51 1023.51 1023.47 1023.47 1023.51 1023.47 1023.43 1023.27 1023.23 1023.15 1023.07 1022.99 1022.83 1022.71 1022.55 1022.43 1022.27 1022.15 1021.99 1021.71 1021.31 1020.95 1020.63 1020.31 1020.03 1019.75 1019.51 1019.27 1019.07 1018.95 1018.83 1018.83 1018.79 1018.75 1018.75 1018.71 1018.67 1018.55 1018.47 1018.39 1018.19 1017.99 1017.75 1017.55 1017.43
1020.79 1020.99 1021.19 1021.43 1021.59 1021.71 1021.79 1021.95 1022.11 1022.27 1022.35 1022.47 1022.59 1022.71 1022.83 1022.99 1023.07 1023.11 1023.15 1023.15 1023.15 1023.19 1023.27 1023.27 1023.27 1023.27 1023.27 1023.31 1023.27 1023.27 1023.15 1023.07 1022.99 1022.91 1022.83 1022.75 1022.67 1022.55 1022.39 1022.19 1022.03 1021.87 1021.59 1021.27 1020.95 1020.63 1020.35 1020.07 1019.79 1019.47 1019.19 1018.91 1018.79 1018.75 1018.71 1018.71 1018.71 1018.67 1018.63 1018.63 1018.55 1018.47 1018.39 1018.27 1018.15 1017.91 1017.71 1017.47 1017.27
1020.43 1020.71 1020.99 1021.23 1021.35 1021.43 1021.55 1021.75 1021.87 1021.91 1022.03 1022.23 1022.39 1022.55 1022.67 1022.79 1022.83 1022.87 1022.91 1022.95 1022.99 1022.99 1022.99 1022.99 1022.99 1023.03 1023.11 1023.11 1023.03 1022.99 1022.91 1022.87 1022.79 1022.71 1022.63 1022.55 1022.43 1022.27 1022.15 1021.95 1021.75 1021.55 1021.27 1020.99 1020.71 1020.43 1020.15 1019.87 1019.55 1019.19 1018.87 1018.63 1018.55 1018.55 1018.55 1018.55 1018.59 1018.59 1018.55 1018.47 1018.43 1018.39 1018.27 1018.15 1017.99 1017.87 1017.63 1017.43 1017.23
1020.19 1020.43 1020.71 1020.87 1021.03 1021.15 1021.31 1021.43 1021.55 1021.67 1021.79 1021.99 1022.15 1022.35 1022.47 1022.55 1022.63 1022.67 1022.71 1022.71 1022.71 1022.71 1022.71 1022.71 1022.75 1022.83 1022.83 1022.79 1022.75 1022.75 1022.71 1022.63 1022.55 1022.47 1022.43 1022.35 1022.27 1022.07 1021.87 1021.63 1021.47 1021.27 1021.07 1020.79 1020.51 1020.23 1019.91 1019.55 1019.27 1018.99 1018.67 1018.43 1018.43 1018.43 1018.47 1018.47 1018.51 1018.55 1018.51 1018.43 1018.35 1018.27 1018.19 1018.11 1017.99 1017.79 1017.55 1017.31 1017.15
1019.95 1020.19 1020.43 1020.59 1020.75 1020.91 1021.03 1021.15 1021.27 1021.47 1021.67 1021.83 1021.99 1022.15 1022.27 1022.39 1022.43 1022.43 1022.43 1022.43 1022.43 1022.43 1022.39 1022.47 1022.55 1022.55 1022.55 1022.55 1022.55 1022.55 1022.51 1022.43 1022.39 1022.31 1022.27 1022.19 1021.99 1021.75 1021.55 1021.43 1021.27 1021.11 1020.87 1020.59 1020.27 1019.99 1019.63 1019.31 1019.07 1018.75 1018.47 1018.27 1018.27 1018.35 1018.43 1018.43 1018.43 1018.43 1018.43 1018.35 1018.27 1018.19 1018.15 1018.03 1017.91 1017.71 1017.51 1017.27 1017.15
1019.71 1019.95 1020.15 1020.39 1020.51 1020.63 1020.75 1020.95 1021.15 1021.35 1021.55 1021.71 1021.83 1021.91 1022.03 1022.07 1022.11 1022.15 1022.15 1022.15 1022.15 1022.19 1022.23 1022.27 1022.31 1022.31 1022.31 1022.35 1022.35 1022.35 1022.31 1022.27 1022.19 1022.15 1021.99 1021.91 1021.75 1021.55 1021.39 1021.23 1021.11 1020.95 1020.71 1020.39 1020.07 1019.75 1019.43 1019.15 1018.87 1018.55 1018.27 1018.15 1018.19 1018.27 1018.39 1018.39 1018.39 1018.39 1018.35 1018.27 1018.19 1018.11 1017.99 1017.91 1017.83 1017.71 1017.47 1017.27 1017.15
1019.51 1019.71 1019.91 1020.11 1020.23 1020.35 1020.55 1020.75 1020.99 1021.19 1021.35 1021.51 1021.59 1021.71 1021.79 1021.79 1021.87 1021.95 1021.99 1021.95 1021.99 1021.99 1021.99 1022.03 1022.07 1022.11 1022.11 1022.11 1022.11 1022.07 1022.03 1021.99 1021.95 1021.83 1021.71 1021.55 1021.51 1021.39 1021.27 1021.07 1020.91 1020.71 1020.43 1020.11 1019.83 1019.55 1019.27 1018.99 1018.71 1018.43 1018.15 1017.99 1018.07 1018.23 1018.31 1018.31 1018.27 1018.27 1018.27 1018.19 1018.07 1017.95 1017.87 1017.87 1017.75 1017.63 1017.43 1017.23 1017.07
1019.23 1019.47 1019.67 1019.79 1019.91 1020.11 1020.31 1020.55 1020.75 1020.99 1021.15 1021.27 1021.39 1021.43 1021.55 1021.59 1021.71 1021.75 1021.75 1021.71 1021.71 1021.75 1021.75 1021.79 1021.79 1021.79 1021.79 1021.79 1021.79 1021.83 1021.75 1021.67 1021.63 1021.55 1021.55 1021.43 1021.35 1021.27 1021.11 1020.91 1020.71 1020.51 1020.23 1019.91 1019.63 1019.39 1019.15 1018.83 1018.59 1018.31 1018.03 1017.87 1017.99 1018.15 1018.27 1018.27 1018.23 1018.23 1018.15 1018.11 1017.95 1017.83 1017.75 1017.71 1017.67 1017.55 1017.39 1017.15 1016.99
1018.91 1019.15 1019.35 1019.47 1019.63 1019.87 1020.11 1020.31 1020.55 1020.79 1020.95 1021.07 1021.15 1021.19 1021.27 1021.39 1021.43 1021.47 1021.43 1021.47 1021.47 1021.55 1021.55 1021.55 1021.55 1021.55 1021.55 1021.55 1021.55 1021.55 1021.55 1021.51 1021.47 1021.43 1021.35 1021.27 1021.19 1021.07 1020.91 1020.71 1020.55 1020.31 1020.03 1019.75 1019.51 1019.27 1018.99 1018.75 1018.47 1018.15 1017.91 1017.87 1017.99 1018.11 1018.15 1018.15 1018.15 1018.15 1018.07 1017.99 1017.87 1017.71 1017.67 1017.63 1017.55 1017.43 1017.27 1017.07 1016.83
1018.55 1018.79 1018.99 1019.19 1019.39 1019.59 1019.87 1020.07 1020.31 1020.55 1020.67 1020.79 1020.83 1020.87 1020.99 1021.11 1021.15 1021.19 1021.23 1021.27 1021.31 1021.35 1021.35 1021.31 1021.31 1021.35 1021.35 1021.31 1021.35 1021.31 1021.27 1021.27 1021.27 1021.19 1021.15 1021.07 1020.99 1020.87 1020.71 1020.55 1020.35 1020.15 1019.87 1019.63 1019.39 1019.15 1018.91 1018.67 1018.39 1018.03 1017.83 1017.79 1017.91 1017.99 1018.07 1018.07 1018.11 1018.07 1017.99 1017.87 1017.71 1017.67 1017.59 1017.55 1017.47 1017.35 1017.19 1016.99 1016.75
1018.19 1018.43 1018.67 1018.87 1019.11 1019.35 1019.55 1019.83 1020.03 1020.23 1020.35 1020.43 1020.43 1020.55 1020.67 1020.79 1020.91 1020.99 1021.07 1021.15 1021.15 1021.15 1021.15 1021.11 1021.11 1021.11 1021.07 1021.03 1021.07 1021.03 1021.03 1021.03 1021.07 1020.99 1020.95 1020.83 1020.79 1020.71 1020.55 1020.39 1020.19 1019.99 1019.79 1019.51 1019.27 1019.03 1018.79 1018.55 1018.27 1017.95 1017.71 1017.71 1017.83 1017.91 1017.95 1017.95 1017.99 1017.95 1017.87 1017.75 1017.67 1017.55 1017.55 1017.47 1017.43 1017.27 1017.15 1016.87 1016.63
1017.87 1018.15 1018.39 1018.59 1018.83 1019.07 1019.27 1019.51 1019.71 1019.87 1019.95 1019.99 1020.11 1020.19 1020.35 1020.55 1020.71 1020.79 1020.83 1020.87 1020.95 1020.95 1020.91 1020.87 1020.91 1020.83 1020.83 1020.79 1020.79 1020.83 1020.83 1020.83 1020.83 1020.83 1020.75 1020.71 1020.59 1020.51 1020.39 1020.23 1020.03 1019.87 1019.67 1019.43 1019.15 1018.95 1018.71 1018.47 1018.15 1017.87 1017.63 1017.59 1017.71 1017.79 1017.83 1017.87 1017.83 1017.79 1017.71 1017.63 1017.55 1017.47 1017.43 1017.39 1017.27 1017.15 1016.99 1016.71 1016.35
1017.59 1017.87 1018.15 1018.35 1018.55 1018.79 1019.03 1019.23 1019.35 1019.43 1019.51 1019.67 1019.83 1019.95 1020.15 1020.27 1020.43 1020.51 1020.55 1020.59 1020.63 1020.67 1020.67 1020.71 1020.67 1020.59 1020.55 1020.55 1020.55 1020.59 1020.63 1020.59 1020.63 1020.63 1020.55 1020.51 1020.43 1020.27 1020.15 1019.99 1019.87 1019.71 1019.51 1019.27 1019.07 1018.83 1018.63 1018.39 1018.11 1017.79 1017.55 1017.47 1017.55 1017.67 1017.71 1017.71 1017.67 1017.63 1017.55 1017.47 1017.43 1017.43 1017.35 1017.27 1017.19 1017.03 1016.87 1016.63 1016.19
1017.31 1017.59 1017.87 1018.11 1018.31 1018.55 1018.71 1018.91 1018.99 1019.07 1019.19 1019.43 1019.55 1019.71 1019.87 1019.99 1020.11 1020.19 1020.27 1020.35 1020.39 1020.43 1020.43 1020.43 1020.43 1020.39 1020.31 1020.31 1020.35 1020.39 1020.43 1020.43 1020.43 1020.43 1020.39 1020.27 1020.19 1019.99 1019.87 1019.75 1019.71 1019.55 1019.39 1019.19 1018.99 1018.75 1018.51 1018.27 1017.99 1017.71 1017.43 1017.39 1017.43 1017.51 1017.51 1017.55 1017.51 1017.47 1017.43 1017.39 1017.35 1017.31 1017.27 1017.15 1017.07 1016.95 1016.75 1016.55 1016.19
1017.11 1017.39 1017.63 1017.83 1017.99 1018.23 1018.43 1018.55 1018.71 1018.83 1018.99 1019.15 1019.31 1019.39 1019.51 1019.71 1019.87 1019.99 1020.11 1020.15 1020.19 1020.19 1020.19 1020.19 1020.19 1020.19 1020.15 1020.15 1020.15 1020.15 1020.23 1020.27 1020.19 1020.15 1020.15 1020.07 1019.99 1019.87 1019.71 1019.63 1019.55 1019.43 1019.31 1019.15 1018.95 1018.71 1018.43 1018.15 1017.87 1017.63 1017.39 1017.27 1017.27 1017.27 1017.35 1017.39 1017.35 1017.35 1017.27 1017.27 1017.23 1017.23 1017.15 1017.07 1016.95 1016.75 1016.55 1016.39 1016.19
Wind_Speed
7 7 6 6 6 5 5 5 5 5 5 4 4 4 4 4 4 4 4 4 4 4 4 4 4 4 4 4 5 6 6 7 7 8 8 9 8 8 7 7 7 7 7 7 7 6 6 6 5 5 4 5 5 5 5 5 5 6 6 6 6 6 7 8 9 9 9 9 7
8 8 7 7 7 6 5 5 5 5 4 4 4 4 4 4 4 4 4 4 4 4 4 4 4 4 4 5 6 6 6 7 7 8 8 8 8 7 7 7 7 7 7 7 7 6 6 5 5 5 5 5 5 5 6 6 5 6 7 8 6 6 6 8 8 9 9 8 7
8 8 7 7 6 6 5 5 5 5 5 4 4 4 4 4 4 4 4 4 4 4 4 4 4 4 4 5 5 6 6 7 7 7 7 7 7 7 7 7 7 7 7 7 7 6 6 6 6 6 6 6 6 6 6 6 6 6 7 8 6 6 6 7 7 7 7 7 6
8 8 7 7 8 7 7 6 5 5 5 4 4 4 4 4 4 4 4 4 4 4 4 4 4 4 5 5 6 6 7 7 8 7 7 7 7 7 7 7 7 7 7 7 7 7 7 6 6 6 6 6 7 7 6 6 6 6 6 6 6 6 6 7 7 7 7 7 7
8 8 8 8 9 9 7 6 6 6 5 4 4 4 4 4 4 4 3 3 4 4 5 5 4 4 5 6 7 7 7 7 8 7 7 6 7 7 6 7 7 7 7 7 7 7 7 7 6 6 6 6 6 6 6 7 6 6 6 6 6 6 7 7 7 7 7 7 6
8 8 8 8 8 8 6 6 6 6 5 4 5 5 5 4 4 4 4 4 5 5 5 5 5 6 6 6 6 6 6 6 6 6 6 7 7 7 7 7 7 7 7 7 7 7 7 7 6 6 5 6 6 6 7 7 7 7 7 7 7 7 7 8 7 7 7 8 8
9 9 9 8 8 7 6 6 6 5 5 4 6 6 6 5 5 5 5 5 4 4 5 5 5 6 6 6 6 6 6 6 6 6 6 6 7 7 7 7 7 7 7 7 7 7 7 6 6 6 7 7 7 7 7 7 7 8 9 9 8 8 8 8 7 7 8 10 10
8 9 9 8 8 8 8 7 6 5 5 5 6 7 8 7 7 6 6 5 4 4 4 4 5 5 6 6 6 6 6 6 7 6 6 6 7 7 7 7 7 7 7 7 7 7 7 6 6 6 7 6 6 7 8 8 9 9 10 11 10 9 8 7 6 7 8 10 11
7 7 8 8 7 8 8 7 7 7 6 7 7 8 8 7 7 7 6 5 5 5 5 4 5 6 6 6 6 6 6 6 7 7 7 6 7 7 7 7 7 7 7 7 7 8 7 7 6 6 6 6 7 8 9 9 10 11 11 11 11 11 10 8 7 8 9 10 12
8 7 7 7 7 7 7 7 7 7 8 8 8 8 8 8 7 6 5 5 5 5 4 4 5 5 6 6 6 6 6 6 6 7 7 7 7 7 7 7 7 7 8 7 7 7 7 7 7 7 7 7 8 9 10 11 11 12 12 11 11 12 13 12 10 10 10 11 12
9 8 8 7 7 7 7 7 7 7 7 7 7 7 7 8 7 6 5 4 4 4 5 5 5 5 6 6 6 6 6 6 6 6 7 7 7 7 7 7 7 8 8 8 7 6 7 7 8 8 9 9 9 10 11 11 12 13 13 12 13 14 15 15 12 11 10 11 12
10 8 8 7 7 7 7 7 6 7 7 7 7 7 6 6 6 6 5 5 5 5 5 5 5 6 6 6 6 6 6 6 7 7 7 7 7 7 7 7 8 8 8 8 7 6 6 7 8 10 11 11 10 10 10 12 12 13 14 14 14 15 15 16 14 11 10 10 12
9 9 8 7 7 7 7 7 6 6 7 7 7 7 6 6 7 6 6 6 6 6 5 5 5 6 6 6 6 6 6 6 7 7 7 7 7 7 7 8 8 8 8 8 7 6 7 8 9 10 11 12 11 11 11 12 13 13 14 15 15 15 16 16 14 12 11 12 12
9 9 8 8 8 8 7 7 7 6 6 7 7 7 6 6 6 6 6 6 6 6 5 5 5 5 6 6 6 7 7 7 7 7 7 8 7 7 8 8 8 8 8 8 7 7 8 9 10 11 12 13 13 13 13 13 13 14 14 15 16 16 17 16 15 13 13 13 13
9 9 9 8 8 8 7 8 7 6 7 7 7 6 6 6 6 6 6 6 6 6 5 5 5 6 6 7 7 7 7 7 7 7 8 8 8 8 8 8 8 8 8 8 8 8 9 10 10 11 11 12 13 14 14 14 14 14 15 15 16 16 17 16 15 14 13 14 13
10 9 9 8 9 8 8 8 7 6 6 7 7 6 6 6 5 5 6 6 6 5 5 5 5 5 6 6 7 7 7 7 7 7 8 8 8 8 8 8 8 8 9 9 9 9 9 10 10 10 11 12 13 14 15 15 15 15 16 16 16 16 16 17 16 15 15 14 13
10 10 9 9 10 10 9 9 7 7 7 7 7 6 6 6 5 5 6 6 5 5 5 6 6 5 5 6 6 6 6 6 7 7 7 8 8 8 8 9 9 9 9 9 10 10 10 10 10 10 11 12 13 14 15 16 16 16 16 17 16 16 16 17 17 16 15 15 14
11 10 10 10 11 11 11 10 8 8 8 7 7 6 6 6 5 6 6 6 6 6 6 7 6 6 6 7 6 6 6 6 7 7 8 8 8 8 9 9 9 9 9 9 10 10 11 11 11 11 11 12 13 14 15 15 16 16 17 17 16 16 16 17 17 16 15 14 13
11 11 11 12 12 12 11 11 10 9 8 7 6 6 6 6 6 6 6 6 6 7 7 7 6 6 6 7 7 7 6 7 8 8 8 8 8 8 9 9 9 9 9 9 10 10 11 11 11 11 12 12 13 14 15 16 16 16 16 16 16 16 16 17 17 16 15 13 13
12 12 12 13 12 12 11 11 10 9 8 6 6 7 7 7 7 7 7 7 7 6 6 6 6 7 7 7 7 7 7 7 7 8 8 8 8 8 9 9 9 9 9 9 9 10 10 10 11 12 12 13 14 15 16 16 16 16 16 15 14 15 16 17 17 16 14 13 12
13 13 13 12 12 11 11 10 9 8 7 7 7 8 8 7 7 7 7 7 6 6 6 6 7 7 8 8 8 8 7 7 7 8 8 8 8 9 9 9 9 9 9 8 9 9 10 10 11 12 13 14 15 16 16 16 16 16 15 13 13 14 16 16 16 14 13 12 12
13 13 12 12 11 11 10 9 8 8 8 8 8 8 7 8 8 7 7 6 5 5 6 7 7 7 8 8 9 8 8 7 7 7 7 8 8 9 9 8 8 8 8 9 9 9 10 11 12 12 13 14 15 16 16 16 15 15 13 12 13 13 14 14 13 12 11 11 11
12 11 11 10 10 10 10 9 8 8 8 8 8 8 8 8 7 7 6 6 5 6 6 6 7 7 8 8 8 8 8 7 8 8 8 8 8 8 8 8 7 8 8 8 8 9 9 10 11 12 13 13 15 16 16 16 14 12 10 9 9 10 10 10 10 9 9 9 9
11 10 9 8 9 9 9 8 8 8 9 9 9 8 8 8 7 6 6 6 6 6 6 6 6 7 7 8 8 8 8 8 9 9 9 8 8 8 8 7 7 7 8 7 8 9 10 10 10 11 12 12 13 13 14 13 10 7 5 5 6 7 7 7 7 8 8 8 8
11 10 9 9 9 9 9 9 9 10 10 9 9 8 8 7 7 6 6 6 6 7 7 7 6 6 7 7 7 7 8 8 9 9 9 9 8 8 7 7 7 6 6 7 12 16 18 16 13 12 11 11 12 12 11 9 7 6 5 5 5 6 6 7 7 7 7 8 8
10 10 10 10 10 10 10 10 10 10 10 9 8 8 7 7 6 6 6 6 6 6 6 6 6 6 7 7 7 7 7 7 7 8 8 9 9 8 7 7 6 6 6 10 15 19 21 21 20 18 15 12 11 10 8 5 4 4 4 4 5 5 6 7 7 7 7 7 8
10 11 11 10 10 11 11 11 10 10 10 9 9 9 8 7 6 6 6 6 6 6 5 5 6 7 7 6 6 7 7 7 7 7 8 8 8 8 8 7 7 6 8 13 18 20 21 22 22 21 19 14 11 9 6 4 4 4 4 4 5 5 6 7 7 8 8 8 7
11 11 11 10 11 11 11 11 10 10 10 10 10 9 8 7 7 6 6 6 5 5 5 5 5 5 5 4 6 7 7 7 7 7 7 7 8 8 8 8 7 8 11 16 20 21 22 22 22 22 21 18 12 7 5 3 3 3 3 4 4 5 6 6 7 8 8 9 8
12 12 11 11 12 12 11 11 11 11 11 10 9 8 7 7 7 7 6 6 5 5 5 5 4 4 4 4 6 6 6 7 6 6 6 7 7 8 8 8 8 10 14 19 21 21 21 21 21 22 23 22 12 6 2 2 2 3 3 3 4 5 5 6 6 7 7 8 7
12 12 12 12 12 12 12 12 12 11 10 9 8 8 8 8 7 7 7 6 6 6 5 4 4 4 5 6 5 5 5 6 6 6 6 7 7 8 8 9 8 10 13 19 20 21 21 21 21 22 23 22 14 6 2 2 2 2 3 3 4 4 5 5 6 7 8 7 7
12 12 12 12 12 12 12 12 11 10 9 8 8 8 8 8 8 8 7 7 6 6 5 5 5 5 6 6 5 5 5 6 6 6 6 7 9 9 9 9 8 10 13 18 20 21 21 21 21 22 22 21 12 5 1 2 2 2 3 3 3 4 5 5 6 7 8 8 7
12 12 12 12 13 13 12 11 10 10 9 9 9 9 9 9 8 7 6 5 5 5 5 5 5 6 5 5 5 5 5 6 6 6 7 7 8 8 8 9 8 10 13 18 20 20 20 20 21 22 22 20 11 5 1 2 2 2 3 3 3 4 4 5 5 6 7 7 7
12 12 12 13 13 12 12 11 10 10 9 9 10 10 10 9 7 6 5 5 4 5 5 6 6 6 6 5 5 5 5 6 7 8 8 8 8 8 8 8 8 10 14 18 19 20 20 20 20 22 21 18 9 3 1 2 2 2 2 3 3 3 4 5 6 6 7 7 6
13 13 13 13 13 12 11 11 10 10 10 10 10 10 10 9 8 7 6 6 5 5 5 5 5 5 5 5 5 5 5 6 7 7 7 8 8 7 7 7 7 10 14 18 19 19 19 20 20 21 21 17 7 2 1 2 2 2 2 3 2 3 4 5 6 6 7 7 6
14 14 13 13 13 12 11 11 10 10 10 11 11 11 10 9 9 8 7 7 6 5 5 5 4 4 4 4 5 5 6 7 7 7 7 7 7 7 8 7 8 11 15 18 19 19 19 19 20 21 20 14 5 1 2 2 2 3 3 2 2 3 4 6 6 6 6 6 6
14 14 14 14 13 12 12 11 11 11 11 12 12 12 11 10 9 8 7 7 6 5 4 4 4 4 4 4 4 5 6 7 7 7 7 7 7 7 7 7 8 11 14 17 18 18 18 19 20 21 18 10 2 1 2 2 3 3 2 2 2 3 4 5 6 6 6 6 6
15 15 14 14 13 13 12 12 11 12 12 13 13 12 11 10 8 7 6 6 6 5 5 4 4 4 4 5 5 6 6 6 7 7 8 8 7 7 8 8 8 10 13 16 17 18 18 18 19 19 16 7 1 2 2 2 2 2 2 2 2 3 4 5 6 6 6 6 7
15 15 14 14 13 13 12 12 12 13 14 14 13 12 10 9 8 7 7 7 6 5 5 5 5 5 5 5 5 6 6 6 7 7 8 8 8 8 7 7 7 8 10 14 16 17 17 17 18 18 15 6 0 2 3 3 2 2 1 1 2 3 4 4 5 5 6 7 9
15 14 14 14 13 13 13 13 14 14 14 13 12 11 9 8 7 7 7 7 6 6 6 5 5 5 5 6 6 6 6 6 7 7 8 8 8 8 8 7 6 7 9 13 15 16 17 17 17 18 15 8 0 2 3 2 2 2 1 1 2 3 4 4 5 5 6 7 10
14 14 14 14 13 13 13 14 14 14 13 12 11 11 10 8 8 7 7 6 6 5 5 5 6 6 6 6 6 6 6 6 6 7 7 8 9 10 10 8 6 7 9 12 14 16 16 16 16 16 15 8 1 2 2 2 2 2 2 2 2 3 4 4 4 5 5 6 9
13 13 14 14 13 13 14 14 14 13 12 11 11 10 9 9 8 7 6 5 6 5 5 5 6 6 7 7 6 6 6 6 7 7 7 8 8 9 9 7 6 7 8 10 13 14 15 15 15 15 14 9 3 0 1 2 2 2 2 2 2 3 3 4 4 4 5 5 6
Wind_Direction
199 200 200 201 203 205 208 212 213 211 207 202 206 209 211 212 221 227 230 229 234 240 243 243 243 245 249 250 251 254 259 263 264 265 267 267 267 266 265 265 263 263 264 266 267 269 271 269 269 271 275 276 276 275 274 273 272 272 272 271 274 275 276 276 277 277 277 275 274
201 202 203 206 208 208 208 211 215 215 211 205 206 207 209 211 220 226 230 229 232 236 240 245 245 247 250 254 254 256 259 264 264 266 268 268 267 266 265 265 264 263 264 266 268 271 273 272 273 274 276 276 276 276 275 273 271 271 272 270 271 273 274 274 275 275 276 277 274
200 201 202 206 206 205 204 208 212 213 212 211 209 209 210 213 219 224 228 229 230 233 238 245 247 248 251 255 257 258 258 261 261 263 265 266 265 263 262 262 263 265 266 269 269 271 274 275 276 278 279 279 278 278 277 276 272 271 270 269 270 272 274 275 275 277 278 279 275
198 199 201 205 206 205 204 206 207 209 210 212 211 212 213 216 218 222 226 228 229 231 234 239 246 250 253 256 259 260 260 260 262 263 264 264 264 262 262 263 266 268 270 271 270 271 272 273 276 278 279 278 277 276 274 275 272 270 270 270 271 272 272 274 275 276 278 279 275
201 201 201 204 204 204 204 203 203 206 209 209 211 214 218 219 220 222 224 228 231 233 235 236 243 251 255 256 258 259 261 262 266 267 267 267 267 267 267 267 268 269 271 272 272 272 272 271 276 277 277 276 274 271 269 268 269 270 271 273 273 272 272 274 274 275 276 276 274
203 203 204 204 203 204 205 203 202 204 206 206 210 216 221 221 218 220 225 231 236 238 241 244 251 256 259 258 259 261 263 264 266 266 267 269 270 271 270 270 268 269 271 273 273 273 273 273 278 279 278 277 273 270 267 264 267 270 273 275 274 274 273 273 274 274 275 273 272
200 201 203 204 202 203 204 204 203 204 205 207 211 216 220 220 219 221 225 232 239 244 248 252 255 258 261 262 264 266 267 268 267 265 264 266 268 270 271 272 272 272 272 273 274 275 275 274 278 279 279 279 279 275 271 267 269 272 275 277 277 277 275 273 273 272 272 271 270
198 200 201 202 201 201 203 203 202 203 206 211 214 216 218 219 220 224 229 237 242 246 248 251 250 251 253 257 261 264 266 267 268 266 264 265 268 270 272 273 275 275 274 274 275 276 277 277 277 278 278 279 279 278 276 272 272 274 275 278 278 278 275 272 269 267 267 268 268
201 203 202 201 200 200 201 201 199 201 205 212 214 215 215 216 219 224 230 238 241 242 242 244 245 246 249 252 256 259 261 262 264 265 266 266 269 272 274 276 277 278 278 278 277 277 277 278 278 277 276 276 276 277 277 276 275 275 276 277 278 277 274 270 266 263 264 266 267
202 203 202 202 203 201 199 199 200 202 205 212 214 215 217 221 222 222 224 231 236 239 240 241 244 247 250 252 255 256 257 258 261 263 266 269 271 273 275 277 278 280 281 282 280 279 278 278 277 276 275 274 275 276 277 277 276 275 275 276 277 278 277 274 269 265 264 265 266
201 200 199 200 201 199 196 197 203 205 207 213 216 218 221 226 227 225 223 226 231 236 239 240 243 247 250 253 253 254 255 256 260 263 267 270 272 273 273 274 276 278 279 280 280 279 279 278 277 276 276 275 275 276 277 276 275 274 274 275 277 278 278 276 273 269 266 266 265
200 199 198 198 196 194 193 197 204 208 211 215 218 220 222 226 226 226 226 227 231 237 240 241 240 242 245 250 251 254 257 258 261 264 267 269 270 271 272 273 274 275 276 277 277 277 277 277 277 277 277 277 277 277 276 276 275 275 276 277 277 277 277 276 275 272 269 267 265
198 198 198 198 194 193 195 201 207 211 213 217 220 221 222 225 224 224 224 227 232 238 242 242 238 238 241 247 251 254 258 260 262 264 266 268 270 271 272 273 273 274 275 276 275 275 274 275 275 276 277 278 277 276 275 275 276 276 277 278 278 277 276 276 276 275 272 268 265
196 197 198 197 194 195 199 206 210 213 215 219 221 221 222 225 224 222 221 223 230 236 240 243 241 240 240 243 250 254 257 260 262 264 266 268 269 270 272 273 273 273 274 276 275 273 272 272 273 274 276 277 277 277 276 275 275 275 275 275 276 276 276 276 276 275 273 268 265
197 199 199 196 196 199 204 209 212 214 216 220 221 220 219 223 225 223 220 222 227 232 236 240 244 247 247 247 251 254 257 259 261 262 265 267 268 269 270 272 273 273 274 275 275 273 271 270 271 272 274 275 276 277 276 276 274 273 272 272 272 273 274 275 276 274 270 266 263
199 201 200 197 200 203 207 210 213 214 216 219 219 218 217 221 223 221 220 221 226 229 232 236 243 249 254 255 254 254 256 258 259 260 262 265 267 268 270 271 273 273 273 274 275 274 272 270 270 271 272 273 275 276 276 275 274 273 271 270 270 271 272 273 273 271 267 262 259
201 202 201 199 203 206 209 211 212 213 215 218 217 216 217 219 220 220 220 220 222 227 233 237 242 248 255 260 259 258 257 258 259 259 260 262 265 267 270 271 272 272 272 273 274 274 274 272 271 271 271 272 273 274 274 274 273 272 271 271 271 271 271 272 271 269 266 262 258
203 203 202 202 206 208 210 210 211 213 214 215 215 216 216 216 216 218 221 220 220 225 233 242 246 250 254 259 260 260 259 258 258 258 258 260 263 266 269 270 271 271 271 271 272 273 274 274 274 274 273 272 272 273 273 273 272 272 271 271 272 273 273 273 272 270 267 263 259
204 204 204 205 207 209 210 210 211 212 213 213 214 215 216 215 214 216 221 224 223 225 232 243 250 253 254 255 258 259 259 258 257 259 260 261 263 265 267 269 271 271 271 270 270 271 272 274 275 275 275 274 274 273 272 271 271 271 271 272 274 275 276 275 274 271 267 262 257
205 205 206 207 208 209 210 210 210 211 212 212 213 215 216 216 213 214 219 225 226 227 230 239 249 254 257 257 259 259 259 258 257 258 260 262 263 265 266 268 270 271 271 270 270 271 272 274 275 275 275 274 273 273 272 271 270 270 271 273 276 277 277 276 275 273 268 261 255
206 206 207 207 207 208 209 209 209 209 210 212 213 215 216 216 214 214 218 224 226 228 232 238 245 252 257 260 260 260 260 259 256 257 259 262 264 264 265 267 269 271 272 272 272 273 273 274 275 274 273 273 272 271 270 270 270 271 273 276 277 276 276 275 276 274 270 262 255
207 207 207 206 207 207 207 207 207 208 210 213 214 215 216 216 216 216 218 221 224 229 234 239 244 249 253 257 258 260 261 263 260 259 260 262 265 266 267 269 271 274 275 276 275 275 274 273 272 271 270 270 269 268 268 268 270 272 274 275 274 274 274 276 278 276 272 264 257
207 205 205 205 206 206 207 206 206 208 211 214 215 215 216 217 217 218 218 220 226 231 236 242 245 248 251 254 255 258 262 266 267 266 265 264 266 268 270 272 272 273 273 274 273 272 271 270 269 267 265 264 264 265 266 267 269 271 272 272 273 276 280 282 282 278 273 267 260
204 202 202 203 203 204 205 204 206 209 212 214 214 214 215 217 218 219 220 222 228 232 237 243 247 250 252 254 255 256 258 262 266 269 270 269 268 269 271 272 270 269 269 269 273 275 276 274 270 268 267 267 268 271 274 279 284 289 292 292 295 297 297 293 285 278 272 267 262
200 199 200 200 201 203 204 204 207 210 213 214 212 213 214 215 216 217 220 225 230 234 239 244 249 252 255 257 255 253 252 254 259 265 270 273 273 273 273 274 272 270 269 271 281 286 289 290 289 286 283 283 283 286 291 299 307 312 313 310 309 306 302 297 288 279 270 265 260
197 198 199 200 200 201 204 206 209 211 212 212 211 212 213 214 215 216 220 227 233 236 240 245 251 255 257 256 254 253 252 252 255 259 265 272 275 277 277 276 276 274 274 278 287 292 296 298 299 298 295 291 292 294 299 306 305 302 299 300 300 299 298 297 292 285 276 268 260
195 198 200 200 200 203 206 208 209 210 211 211 211 212 214 213 213 216 221 228 233 238 242 245 249 255 257 256 254 255 256 257 259 260 263 267 272 275 277 277 277 276 278 284 292 297 300 302 303 302 301 297 299 304 311 315 305 300 298 297 295 296 297 297 298 297 296 291 278
196 198 199 198 201 205 207 207 208 210 211 211 211 212 213 212 214 217 222 228 233 238 243 247 247 249 251 252 251 252 254 257 261 263 264 265 268 270 273 276 277 278 283 291 297 301 304 305 304 304 303 303 306 312 318 309 300 296 294 293 294 298 302 304 305 306 306 305 297
197 197 197 198 203 206 208 207 209 210 211 210 210 211 212 212 215 219 223 227 231 236 240 245 244 242 241 243 246 249 253 256 259 262 265 268 269 270 272 274 275 281 289 296 301 304 305 305 305 305 306 309 315 322 326 299 292 289 289 290 296 302 306 308 307 306 305 303 299
196 196 197 200 204 207 208 209 210 210 210 208 208 209 211 215 218 221 223 226 230 232 234 237 239 240 241 243 247 253 258 260 261 263 265 268 270 272 273 276 278 285 292 298 302 304 305 306 307 307 309 314 321 327 321 286 279 280 284 289 297 304 307 309 309 309 309 307 302
195 195 197 201 205 207 209 210 210 209 207 206 206 209 213 217 220 222 223 223 227 231 234 233 235 239 242 245 248 254 258 262 264 264 263 264 269 272 275 279 282 287 292 298 302 304 306 307 309 309 312 319 329 337 322 272 267 268 273 281 294 304 310 313 313 314 314 312 305
194 195 198 201 206 208 209 209 207 206 206 206 208 211 215 219 222 222 222 221 225 229 232 233 234 239 244 248 249 251 253 257 259 260 261 261 265 270 276 282 284 287 293 299 303 305 308 310 310 311 314 323 333 338 300 266 261 259 261 267 285 300 310 316 313 313 312 310 302
194 196 199 202 206 208 208 206 205 204 205 207 210 214 218 221 223 223 222 222 223 224 227 230 233 237 242 245 246 248 251 252 255 259 262 265 268 273 279 284 284 289 294 300 305 307 309 311 311 312 315 325 334 333 276 261 258 256 258 263 279 298 310 313 309 307 306 305 298
194 196 200 203 206 207 206 204 202 203 205 209 214 216 219 221 223 224 224 223 221 221 222 225 228 231 233 235 239 245 252 257 259 261 264 267 270 274 278 282 282 289 296 302 306 309 311 312 312 313 316 326 333 325 253 259 259 258 260 266 284 304 313 313 306 302 300 300 294
194 196 200 203 204 204 203 201 201 203 206 212 216 219 220 221 222 223 224 224 223 222 222 223 223 225 228 231 234 242 250 258 261 263 264 266 269 273 276 277 279 289 296 303 307 310 312 313 313 314 318 327 331 288 235 250 253 253 256 268 293 309 312 308 303 300 298 298 293
194 196 199 202 202 202 201 200 200 203 208 213 217 219 220 221 222 223 223 223 224 224 224 224 222 224 228 233 235 240 246 251 257 261 265 267 269 272 275 277 279 288 295 302 307 311 313 314 314 316 319 328 327 210 227 240 243 246 252 271 297 305 304 300 296 295 295 298 293
194 195 197 199 200 200 199 198 200 204 209 214 216 217 219 220 222 222 220 217 220 222 224 223 223 225 228 233 238 242 245 248 254 261 266 269 269 271 274 277 279 285 293 301 307 311 313 314 314 316 320 334 325 198 228 237 238 243 255 278 292 293 291 288 287 287 289 294 298
194 195 196 198 199 199 198 198 201 206 210 214 216 216 216 218 219 219 217 213 215 218 221 222 223 225 228 231 238 244 248 250 252 257 262 266 267 268 270 274 276 281 290 300 307 311 313 314 314 316 320 338 262 198 225 231 232 238 253 278 289 288 285 282 280 280 282 287 306
193 194 195 197 198 198 198 199 203 207 211 213 214 214 214 215 216 217 215 212 211 213 216 221 223 226 229 232 239 247 251 253 252 254 257 261 263 267 270 272 273 280 290 300 307 310 312 313 314 316 319 335 285 193 211 216 222 230 246 270 287 289 287 281 276 274 276 280 306
191 192 194 196 197 198 199 202 206 208 210 210 212 212 213 213 216 216 216 213 210 211 214 221 225 229 233 237 243 248 254 257 255 254 254 257 263 269 274 276 277 283 291 299 305 308 310 311 313 315 318 330 309 185 197 195 208 225 246 263 278 286 286 281 274 270 271 276 299
189 191 193 196 198 199 200 204 207 208 208 209 210 211 212 212 214 214 213 212 211 213 216 223 228 232 236 241 244 249 253 260 260 258 256 258 264 271 276 278 279 282 287 294 301 305 308 311 312 314 315 322 322 226 176 177 197 219 239 251 260 271 278 280 276 273 273 279 290